Torna al catalogo

CERES 3

AttivoMilitareLEO
NORAD 49466·PAYLOAD·🇫🇷 France

Lanciato Nov 16, 2021 da Guiana Space Centre

Loading…

Prossimi Passaggi (prossime 24 ore)

TLE

ObsoletoSource: Mike McCants

Epoca: Aug 26, 2026, 02:20 UTC

1 49466U 21105C   26238.09749895 0.00000338  00000-0  56979-4 0    07
2 49466  74.9985 218.3116 0011834 247.0583 113.0171 14.69464865    08

Traccia CERES 3 in tempo reale con AllMySat

Download on the App Store